Location: Altoona
(40.5167°N, 78.4000°W)
Time: 10:17:58
(UTC-05:00)

Daily predictions for brighter satellites

Satellite Brightness Start Highest point End
(mag) Time Altitude Azimuth Time Altitude Azimuth Time Altitude Azimuth
Cosmos 1980 4.2 17:41:54 10° SSW 17:47:32 66° WNW 17:53:12 10° NNE
AQUARIUS 4.3 17:44:55 10° SSE 17:49:24 84° WSW 17:53:56 10° NNW
Lacrosse 4 Rocket 2.8 17:47:49 10° N 17:50:42 18° NE 17:53:33 10° E
Cosmos 1626 3.1 17:50:52 10° SSE 17:54:02 27° E 17:57:14 10° NNE
USA 229 DEB 4.3 17:51:05 10° S 17:57:13 37° ESE 18:03:26 10° NE
USA 229 4.3 17:51:12 10° S 17:57:19 36° ESE 18:03:31 10° NE
Cosmos 1151 Rocket 3.5 17:55:20 10° NNW 17:59:35 67° W 18:03:52 10° S
Resurs 01 Rocket 3.5 18:00:04 10° ENE 18:01:21 11° ENE 18:02:38 10° NE
Cosmos 2219 Rocket 3.8 17:57:47 10° WSW 18:02:50 33° WNW 18:07:54 10° N
Cosmos 2058 2.9 18:00:34 10° S 18:04:40 88° W 18:08:47 10° N
Meteor 1-11 4.3 17:59:57 10° S 18:05:39 89° E 18:11:28 10° N
Cosmos 1184 Rocket 3.9 18:03:06 10° SSE 18:05:54 25° E 18:08:42 10° NE
Cosmos 1726 3.3 18:04:21 10° NNW 18:08:00 47° W 18:11:38 10° SSW
Cosmos 2279 Rocket 4.0 18:02:03 10° N 18:08:18 80° E 18:14:32 10° S
MONITOR-E 4.1 18:05:45 10° SSE 18:08:55 79° ENE 18:12:05 10° N
Iridium 4 Rocket 4.3 18:07:09 10° SE 18:10:17 19° E 18:13:18 10° NE
Cosmos 2333 Rocket 3.7 18:08:35 10° WSW 18:13:42 35° WNW 18:18:51 10° N
Cosmos 1461 3.2 18:10:29 10° SW 18:14:38 64° WNW 18:18:41 10° NNE
Cosmos 304 Rocket 3.9 18:10:15 10° SSW 18:15:03 79° WNW 18:19:53 10° NNE
Aureole 1 Rocket 4.3 18:10:31 10° S 18:15:41 44° E 18:22:23 10° NNE
FREGAT/IRIS 4.1 18:13:51 10° ESE 18:16:03 18° ENE 18:18:16 10° NNE
Lacrosse 5 rocket 3.3 18:12:51 10° WNW 18:16:14 31° SW 18:19:46 10° S
Cosmos 2278 Rocket 3.7 18:14:07 10° NW 18:19:24 41° WSW 18:24:40 10° S
Cosmos 1242 Rocket 3.8 18:17:08 10° NNE 18:19:38 18° ENE 18:22:09 10° ESE
Tiangong 1 2.6 18:18:54 10° SSW 18:21:16 22° SSE 18:22:42 16° ESE
Cosmos 1455 2.5 18:17:38 10° N 18:21:18 44° E 18:24:57 10° SSE
Cosmos 1805 Rocket 3.5 18:17:27 10° S 18:21:55 83° E 18:26:23 10° N
Cosmos 1356 Rocket 3.2 18:19:56 10° S 18:23:53 66° E 18:27:52 10° NNE
SKYMED 2 3.5 18:21:31 10° NNE 18:25:53 89° E 18:30:13 10° SSW
Nadezhda 4 Rocket 4.0 18:20:51 10° S 18:26:58 60° E 18:33:11 10° NNE
Cosmos 2242 Rocket 4.0 18:25:57 10° N 18:30:07 39° ENE 18:34:17 10° SSE
Cosmos 1538 Rocket 4.0 18:25:26 10° SSW 18:30:44 89° WNW 18:36:08 10° NNE
Sich 1 3.0 18:28:18 10° S 18:32:43 70° E 18:37:08 10° NNE
Cosmos 1703 3.7 18:32:13 10° SSW 18:36:05 62° W 18:39:57 10° N
Coronas F rocket 0.9 18:35:12 10° S 18:37:32 54° E 18:37:55 46° NE
Cosmos 923 Rocket 4.2 18:33:37 10° S 18:38:35 47° ESE 18:42:59 13° NNE
Cosmos 2237 Rocket 4.1 18:38:02 10° WSW 18:42:44 27° NW 18:47:28 10° N
SJ-6B 3.0 18:39:54 10° SSE 18:43:54 54° ENE 18:47:57 10° N
SOZ 4.4 18:41:59 10° WSW 18:44:06 70° NW 18:44:55 37° NE
Cosmos 1633 Rocket 3.0 18:40:08 10° S 18:44:32 83° E 18:48:57 10° N
Cosmos 1680 Rocket 3.9 18:39:46 10° S 18:44:37 41° ESE 18:47:47 20° NE
Cosmos 2369 Rocket 3.1 18:41:40 10° N 18:46:19 25° NE 18:47:04 25° ENE
NOSS 3-1 (C) 4.2 18:43:32 10° S 18:48:23 29° ESE 18:50:00 26° E
Cosmos 1092 Rocket 4.0 18:44:07 10° S 18:50:21 66° E 18:56:39 10° NNE
SL-16 R/B 3.1 18:46:10 10° SW 18:51:38 50° WNW 18:57:08 10° NNE
Lacrosse 5 3.8 18:52:55 10° NNW 18:55:34 14° NNE 18:56:21 14° NNE
USA 215 3.4 18:56:43 24° ESE 19:00:38 56° NE 19:07:01 10° NW
ALOS 2.4 18:57:11 10° SSE 19:01:40 50° ENE 19:06:11 10° N
Cosmos 773 Rocket 4.2 18:56:57 10° SSW 19:02:06 70° WNW 19:07:20 10° NNE
Cosmos 1862 Rocket 3.5 19:04:47 10° N 19:09:07 58° E 19:13:23 10° SSE
METEOR-M 4.3 19:03:57 10° S 19:09:17 73° WSW 19:14:39 10° NNW
FENGYUN 3A 3.6 19:06:07 10° SSE 19:11:23 63° ENE 19:16:43 10° N
Cosmos 292 Rocket 3.6 19:07:03 10° SSW 19:11:48 88° ESE 19:14:24 27° NNE
Cosmos 2195 Rocket 4.4 19:06:33 10° S 19:12:34 64° E 19:18:39 10° NNE
Genesis I 4.2 19:10:07 10° S 19:12:42 33° SSE 19:12:42 33° SSE
Cosmos 2112 Rocket 3.8 19:16:13 10° SSW 19:21:23 77° ESE 19:23:17 40° NNE
Cosmos 1869 4.3 19:20:37 10° NNW 19:24:31 48° W 19:28:24 10° SSW
Cosmos 1943 3.2 19:22:59 10° S 19:28:31 57° ESE 19:28:35 57° ESE
Lacrosse 4 Rocket 2.6 19:25:46 10° NW 19:29:34 40° WSW 19:33:02 12° S
ATLAS 5 CENTAUR R/B 3.6 19:25:52 10° NNW 19:29:30 26° NNE 19:29:30 26° NNE
Cosmos 1933 Rocket 3.9 19:28:44 10° SSW 19:33:08 64° W 19:35:24 28° N
Resurs 01 Rocket 1.7 19:32:45 10° S 19:37:11 75° WSW 19:41:39 10° NNW
Cosmos 1417 Rocket 4.3 19:33:16 10° N 19:39:27 70° E 19:45:32 10° SSE
H-2A ROCKET BODY 3.7 19:25:59 10° W 19:42:57 36° SSW 19:45:25 27° SSE
Cosmos 1943 Rocket 3.9 19:42:42 10° N 19:44:33 20° N 19:44:33 20° N
USA 229 DEB 4.5 19:41:25 10° WSW 19:48:00 47° NW 19:51:58 24° NNE
USA 229 4.5 19:41:30 10° WSW 19:48:05 48° NW 19:52:02 24° NNE
Cosmos 1655 Rocket 4.0 19:45:04 10° S 19:51:27 86° W 19:57:50 10° N
Spot 2 Rocket 3.9 19:46:30 10° S 19:51:28 59° WSW 19:56:27 10° NNW
CZ-4C R/B 3.9 19:52:14 10° NNW 19:56:23 28° NNE 19:56:23 28° NNE
NOSS 3-1 (A) 3.7 19:55:42 10° SSW 20:00:05 54° S 20:00:05 54° S
Cosmos 2369 Rocket 3.4 20:25:11 10° NW 20:28:57 37° WNW 20:28:57 37° WNW
NOSS 3-1 (C) 4.5 20:33:15 10° WSW 20:37:28 40° W 20:37:28 40° W
USA 215 4.1 20:44:05 44° WSW 20:44:05 44° WSW 20:49:55 10° WNW
